PRAETORIAN SDA_601

Last updated on Sat Jun 27 2026 00:03:47 GMT+0000 (Coordinated Universal Time)

1 65585U 25203W 26177.46265927 .00000342 00000+0 30119-3 0 9990 2 65585 81.3037 2.4454 0005763 169.9917 190.1355 13.83168621 39965
UTC large
Height (km)
Speed (km/s)
/
Latitude / Longitude
Inclination (degrees)
Orbital Period (minutes)
Azimuth
Elevation
Range (km)
Doppler Factor

Next 0 passes for location: London (51.5072 / 0.1276)

No passes found over London.
PRAETORIAN SDA_601